Probability
9 9 12 11 6 2 3 5 6 6 4 2 0 0 0 0 0 0 0 0 0 0 0 0 0 0 0 0 0 0 0 0 0 0 0 0 0 0 0 0 0 0 0
8 8 10 11 7 4 3 5 5 5 4 2 0 0 0 0 0 0 0 0 0 0 0 0 0 0 0 0 0 0 0 0 0 0 0 0 0 0 0 0 0 0 0
5 6 8 10 8 4 3 3 4 4 3 1 0 0 0 0 0 0 0 0 0 0 0 0 0 0 0 0 0 0 0 0 0 0 0 0 0 0 0 0 0 0 0
1 2 4 6 6 3 2 2 3 3 2 1 0 1 0 0 0 0 0 0 0 0 0 0 0 0 0 0 0 0 0 0 0 0 0 0 0 0 0 0 0 0 0
0 0 1 3 3 2 1 2 3 2 1 0 0 0 0 0 0 0 0 0 0 0 0 0 0 0 0 0 0 0 0 0 0 0 0 0 0 0 0 0 0 0 0
0 0 1 2 1 1 0 1 2 1 0 0 0 0 0 0 0 0 0 0 0 0 0 0 0 0 0 0 0 0 0 0 0 0 0 0 0 0 0 0 0 0 0
0 1 2 2 1 0 0 1 1 1 0 0 0 0 0 0 0 0 0 0 0 0 0 0 0 0 0 0 0 0 0 0 0 0 0 0 0 0 0 0 0 0 0
0 1 2 2 1 0 0 1 1 1 0 0 0 0 0 0 0 0 0 0 0 0 0 0 0 0 0 0 0 0 0 0 0 0 0 0 0 0 0 0 0 0 0
0 0 1 1 0 0 0 1 2 2 1 0 0 0 0 0 0 0 0 0 0 0 0 0 0 0 0 0 0 0 0 0 0 0 0 0 0 0 0 0 0 0 0
0 0 0 0 0 0 0 1 2 2 1 0 0 0 0 0 0 0 0 0 0 0 0 0 0 0 0 0 0 0 0 0 0 0 0 0 0 0 0 0 0 0 0
0 0 0 0 0 0 0 0 1 2 2 1 0 0 0 0 0 0 0 0 0 0 0 0 0 0 0 0 0 0 0 0 0 0 0 0 0 0 0 0 0 0 0
0 0 0 0 0 0 0 1 2 2 2 1 0 0 0 0 0 0 0 0 0 0 0 0 0 0 0 0 0 0 0 0 0 0 0 0 0 0 0 0 0 0 0
0 0 0 0 0 0 0 1 3 3 1 0 0 0 0 0 0 0 0 0 0 0 0 0 0 0 0 0 0 0 0 0 0 0 0 0 0 0 0 0 0 0 0
0 0 0 0 0 1 1 3 4 4 2 1 0 0 0 0 0 0 0 0 0 0 0 0 0 0 0 0 0 0 0 0 0 0 0 0 0 0 0 0 0 0 0
0 0 0 0 1 2 3 3 4 4 3 2 1 0 0 0 0 0 0 0 0 0 0 0 0 0 0 0 0 0 0 0 0 0 0 0 0 0 0 0 0 0 0
0 0 0 0 1 3 2 1 2 2 3 2 1 0 0 0 0 0 0 0 0 0 0 0 0 0 0 0 0 0 0 0 0 0 0 0 0 0 0 0 0 0 0
0 0 0 0 0 1 1 0 0 1 2 2 1 0 0 0 0 0 0 0 0 0 0 0 0 0 0 0 0 0 0 0 0 0 0 0 0 0 0 0 0 0 0
0 0 0 0 0 0 0 0 0 1 1 1 0 0 0 0 0 0 0 0 0 0 0 0 0 0 0 0 0 0 0 0 0 0 0 0 0 0 0 0 0 0 0
0 0 0 0 0 0 0 0 0 0 0 0 0 0 0 0 0 0 0 0 0 0 0 0 0 0 0 0 0 0 0 0 0 0 0 0 0 0 0 0 0 0 0
0 0 0 0 0 0 0 0 0 0 0 0 0 0 0 0 0 0 0 0 0 0 0 0 0 0 0 0 0 0 0 0 0 0 0 0 0 0 0 0 0 0 0
0 0 0 0 0 0 0 0 0 0 0 0 0 0 0 0 0 0 0 0 0 0 0 0 0 0 0 0 0 0 0 0 0 0 0 0 0 0 0 0 0 0 0
0 0 0 0 0 0 0 0 0 0 0 0 0 0 0 0 0 0 0 0 0 0 0 0 0 0 0 0 0 0 0 0 0 0 0 0 0 0 0 0 0 0 0
0 0 0 0 0 0 0 0 0 0 0 0 0 0 0 0 0 0 0 0 0 0 0 0 0 0 0 0 0 0 0 0 0 0 0 0 0 0 0 0 0 0 0
0 0 0 0 0 0 0 0 0 0 0 0 0 0 0 0 0 0 0 0 0 0 0 0 0 0 0 0 0 0 0 0 0 0 0 0 0 0 0 0 0 0 0
0 0 0 0 0 0 0 0 0 0 0 0 0 0 0 0 0 0 0 0 0 0 0 0 0 0 0 0 0 0 0 0 0 0 0 0 0 0 0 0 0 0 0
0 0 0 0 0 0 0 0 0 0 0 0 0 0 0 0 0 0 0 0 0 0 0 0 0 0 0 0 0 0 0 0 0 0 0 0 0 0 0 0 0 0 0
Wind_Speed
3 3 4 5 7 8 9 9 8 7 7 5 5 4 3 2 2 2 3 3 4 4 4 4 3 3 3 2 3 2 3 3 1 2 2 3 3 2 1 1 1 1 2
3 4 4 5 8 10 9 9 9 8 7 5 4 3 4 3 2 2 2 3 4 4 4 4 3 3 3 3 2 2 2 2 2 2 2 2 2 2 2 1 1 1 1
6 6 5 5 8 8 9 9 8 8 7 7 5 5 4 3 2 2 1 1 3 3 4 5 4 3 3 2 2 2 3 2 2 1 3 3 2 1 2 2 1 1 0
5 6 6 6 7 8 8 8 8 8 8 8 8 8 5 4 4 3 2 2 2 3 4 4 4 4 3 3 2 2 2 3 2 1 2 1 2 2 0 2 1 2 1
6 6 7 6 6 7 7 8 8 8 8 8 8 8 5 3 3 3 3 2 2 2 3 4 4 4 3 3 2 2 2 2 2 2 2 2 2 2 2 1 2 2 1
6 6 6 5 5 6 6 7 8 8 8 8 8 8 7 6 6 4 4 2 1 1 3 3 3 3 3 3 3 3 3 2 2 2 2 2 2 2 2 2 1 1 2
6 6 7 7 7 7 7 8 8 7 8 8 8 7 7 7 7 6 5 4 3 2 4 4 4 3 3 4 3 3 3 2 3 2 2 1 1 2 2 2 1 1 2
6 7 8 7 7 8 8 8 9 7 8 8 7 6 7 5 4 5 5 5 4 4 4 5 5 5 4 4 4 3 3 2 2 3 2 2 1 2 2 3 3 1 1
7 7 7 7 7 7 8 9 9 8 8 8 7 6 7 6 5 5 4 4 4 3 4 5 5 5 5 5 5 3 3 3 3 3 3 2 1 1 2 2 2 3 2
6 7 7 7 7 7 6 7 7 8 7 7 7 6 6 6 5 5 5 5 4 4 4 5 5 5 5 5 5 3 4 4 3 3 3 2 2 2 2 2 2 2 3
7 7 6 6 6 5 6 6 7 6 6 7 6 6 5 5 5 5 5 5 4 5 5 5 5 5 6 5 5 5 5 5 4 4 4 5 3 3 3 2 2 3 3
6 6 6 6 5 6 6 6 6 7 6 6 6 6 5 5 5 4 4 4 4 4 5 4 5 5 6 6 7 7 6 6 6 6 5 5 4 4 4 3 4 4 5
6 5 5 6 6 6 6 6 6 6 6 6 6 5 5 4 4 4 3 3 3 3 3 4 5 5 5 6 6 6 6 6 6 6 6 5 5 5 4 5 4 4 4
6 6 5 5 5 5 5 5 5 5 6 6 6 5 5 5 4 3 3 3 3 3 3 3 3 3 3 3 4 4 5 5 5 5 5 4 5 5 5 4 5 4 4
6 6 5 4 5 5 5 5 5 6 7 7 6 4 4 4 4 3 3 2 2 3 2 2 1 1 1 1 2 3 3 2 2 2 2 2 2 3 3 2 3 3 4
7 6 6 5 6 6 6 6 6 6 7 8 7 6 5 5 4 4 4 3 3 3 3 3 3 3 2 3 2 2 2 2 1 1 2 2 2 3 3 2 1 1 2
7 7 7 6 6 6 6 7 7 8 8 8 7 6 6 6 5 5 5 5 4 5 6 5 6 5 5 6 6 6 4 4 3 3 3 3 4 3 2 2 3 2 2
8 8 8 8 7 7 8 8 8 9 9 9 8 7 7 7 6 6 6 6 5 6 6 6 6 6 7 8 8 8 6 5 5 4 4 3 3 4 4 3 3 3 3
9 8 9 9 9 9 9 11 11 10 10 9 8 7 7 7 7 7 6 5 6 7 7 6 7 7 7 9 8 7 5 5 5 4 4 4 3 6 7 4 4 5 5
10 10 10 11 11 9 10 13 12 11 10 8 7 7 7 7 7 7 6 5 6 7 7 8 7 7 7 9 10 7 4 4 3 3 3 5 5 6 7 4 4 5 6
12 11 12 11 9 8 12 13 11 10 7 8 8 8 8 8 7 6 6 6 7 7 7 7 6 7 7 8 9 7 4 3 2 2 3 3 7 8 8 5 3 6 7
12 11 12 11 8 8 12 13 9 6 7 9 9 8 7 6 6 7 6 6 6 7 6 5 5 5 5 7 7 8 7 4 2 2 3 4 7 8 8 5 6 8 7
11 10 12 12 9 8 10 11 6 6 8 9 8 7 8 7 6 6 6 5 4 4 4 4 4 3 4 5 7 8 8 7 3 3 6 8 8 8 6 7 9 7 4
11 10 11 11 9 8 9 8 6 7 9 9 7 6 7 7 7 5 5 4 3 3 3 3 2 2 3 4 4 4 4 5 4 4 6 7 7 6 6 7 6 5 5
9 9 10 10 8 8 8 6 6 8 9 7 6 6 6 6 6 6 5 4 3 2 3 2 2 2 3 4 6 4 4 4 4 4 3 4 5 6 6 6 6 6 6
9 10 10 9 8 7 7 6 5 6 7 6 5 4 4 4 5 5 6 11 9 10 9 7 4 3 4 6 7 8 8 8 7 4 4 5 5 6 7 7 7 7 7
Wind_Direction
209 180 160 164 167 165 165 167 159 158 150 140 139 136 134 130 120 129 136 135 129 127 119 112 103 103 105 108 106 96 80 57 50 80 50 21 22 33 10 329 285 262 247
186 179 169 175 175 170 167 167 164 162 163 156 144 132 124 124 122 123 122 139 133 136 130 124 119 114 108 96 94 110 103 65 45 108 99 45 3 2 10 347 299 286 273
190 185 180 176 159 163 170 171 163 162 158 142 123 109 90 83 96 115 134 150 143 140 132 134 128 125 121 120 113 124 128 123 67 64 136 142 200 298 338 1 9 346 313
188 185 180 173 164 165 167 164 157 157 153 148 151 150 152 161 176 165 158 148 145 142 140 136 137 137 135 136 141 125 129 133 131 84 59 102 145 147 348 335 350 342 307
188 185 181 175 163 160 164 164 151 155 155 158 158 154 153 149 135 132 142 147 138 144 146 143 145 146 146 146 134 122 123 126 142 147 132 105 79 92 140 221 320 339 322
178 175 163 154 152 150 150 149 153 158 159 160 159 159 157 152 149 154 162 166 161 158 166 159 157 159 157 158 152 140 132 127 127 130 137 147 149 159 147 164 225 286 305
167 164 162 163 160 157 157 156 157 163 166 165 167 167 164 164 169 171 176 175 181 191 196 178 175 176 178 169 155 150 153 150 143 144 139 142 151 150 146 142 154 251 304
170 173 174 171 169 167 166 165 167 169 169 170 170 166 165 167 177 177 176 186 194 197 191 188 189 189 182 175 166 161 171 162 161 159 152 149 161 165 162 156 147 141 311
171 171 170 171 171 171 174 174 173 173 175 173 167 169 172 174 180 181 182 191 197 195 193 194 194 193 187 181 172 182 186 173 180 182 180 181 189 181 176 164 160 158 200
167 166 168 172 174 173 170 170 175 180 175 173 175 178 179 180 180 178 190 198 201 198 190 197 199 197 193 186 182 189 193 187 195 192 192 204 208 201 190 182 180 175 179
177 175 175 175 171 163 164 171 178 177 175 177 178 175 175 176 177 187 201 203 203 200 201 201 200 201 199 191 190 200 194 201 207 203 204 218 208 206 205 197 190 192 185
173 168 165 161 162 169 173 178 179 180 180 175 172 176 170 167 176 195 206 203 204 204 202 193 194 202 202 196 196 204 200 204 212 213 210 223 213 215 213 204 209 210 205
158 153 152 161 170 174 175 178 180 181 170 160 162 163 161 162 176 194 196 194 196 197 192 186 197 206 203 201 205 205 204 205 212 210 211 222 214 228 225 219 223 226 223
154 150 153 158 159 159 162 165 165 158 153 150 152 158 158 157 164 179 178 177 174 174 179 190 196 201 198 203 207 207 214 218 223 219 218 225 224 237 239 234 235 234 235
145 150 154 148 139 137 137 136 133 136 139 138 142 149 143 140 141 142 140 139 147 158 150 134 134 155 159 197 196 201 205 211 232 238 223 224 231 242 242 248 250 242 245
147 142 134 129 130 130 128 124 122 124 127 129 126 120 116 114 116 120 117 107 96 88 87 86 74 60 54 57 94 129 115 108 103 59 50 56 38 32 36 25 9 325 255
134 126 119 114 110 111 115 118 118 113 112 111 109 111 111 106 97 96 91 84 78 78 76 76 81 76 62 66 74 83 88 81 76 73 62 58 48 38 14 358 355 332 309
119 113 107 100 92 93 94 95 95 98 101 101 101 101 99 93 86 82 78 75 75 77 79 75 77 78 63 67 75 80 81 79 71 66 65 62 34 23 9 356 350 328 313
106 102 100 97 91 89 94 93 87 87 88 88 87 88 93 92 87 85 80 76 81 77 72 67 64 67 54 54 67 75 75 73 64 53 44 38 30 10 8 1 337 323 316
98 99 97 94 89 86 92 91 87 84 82 81 80 78 82 88 88 86 82 78 83 82 78 69 60 62 57 51 59 70 72 68 52 39 29 21 5 353 356 349 331 318 314
98 99 96 91 88 90 92 88 84 81 83 85 81 75 74 80 83 80 76 82 85 82 79 75 62 54 48 45 49 56 63 65 49 21 359 346 344 343 338 330 303 288 296
99 99 96 90 83 87 94 90 83 81 83 81 75 70 64 72 81 82 75 76 85 86 79 75 61 43 34 34 35 40 42 39 38 355 334 325 330 332 330 325 313 311 312
104 101 102 94 80 77 92 94 86 86 83 77 71 68 67 63 66 78 82 74 74 85 82 77 68 41 25 19 21 22 20 16 9 336 332 333 336 335 331 328 328 329 327
108 106 101 95 85 77 81 89 89 87 85 80 71 68 71 67 61 62 69 80 81 87 86 79 67 39 20 11 5 2 359 358 355 342 334 334 337 337 326 327 331 331 320
105 103 102 100 93 85 79 77 82 89 86 80 76 74 74 78 73 67 56 64 58 90 104 93 84 54 23 358 358 0 353 346 338 334 340 348 345 344 340 334 329 325 322
109 105 101 100 95 89 82 72 74 89 94 87 80 81 84 83 88 91 74 54 64 66 71 76 77 56 37 16 19 16 10 5 359 3 349 341 337 331 328 325 322 320 318